Location: College Park
(38.9810°N, 76.9370°W)
Time: 23:03:54
(UTC-05:00)

Tiangong 2 - Pass Details

Date: 10 February 2018
Orbit: 384 x 389 km, 42.8° (Epoch: 23 February)

Event Time Altitude Azimuth Distance (km) Brightness Sun altitude
Rises 18:29:37 0° 221° (SW) 2,251 5.8 -10.3°
Reaches altitude 10° 18:31:51 10° 208° (SSW) 1,400 4.4 -10.7°
Maximum altitude 18:34:35 27° 148° (SSE) 775 2.4 -11.2°
Enters shadow 18:36:11 18° 103° (ESE) 1,035 2.7 -11.5°
